Hourly Data Report for August 12, 2017

PITT MEADOWS CS
BRITISH COLUMBIA

49°12'29.964" N
122°41'24.076" W
5.00 m
1106178
71775
WMM

Download Data

Hourly Data (August 2017)
Hourly Data Report for August 12, 2017
TIME
LST
Temp Definition
°C
Dew Point Definition
°C
Rel Hum Definition
%
Precip. Amount Definition
mm

Wind Dir Definition
10's deg

Wind Spd Definition
km/h
Visibility Definition
km
Stn Press Definition
kPa
Hmdx Definition


Wind Chill Definition


Weather Definition


00:00 16.6 12.4 76 0.0 10 7   101.15     LegendNANA
01:00 16.7 12.3 75 0.0 8 6   101.22     LegendNANA
02:00 17.0 12.4 75 0.0 7 9   101.20     LegendNANA
03:00 16.7 12.3 75 0.0 14 5   101.26     LegendNANA
04:00 16.5 11.7 73 0.0 13 12   101.26     LegendNANA
05:00 16.5 12.3 76 0.0 11 3   101.26     LegendNANA
06:00 16.7 12.0 74 0.0 15 2   101.25     LegendNANA
07:00 16.8 12.5 76 0.0 15 4   101.27     LegendNANA
08:00 17.8 12.7 72 0.0 12 4   101.29     LegendNANA
09:00 18.8 13.0 69 0.0 13 2   101.26     LegendNANA
10:00 20.9 13.2 62 0.0 15 9   101.27     LegendNANA
11:00 20.9 12.8 60 0.0 13 11   101.26     LegendNANA
12:00 21.3 12.6 58 0.0 13 9   101.26     LegendNANA
13:00 23.6 13.4 53 0.0 17 3   101.23 27   LegendNANA
14:00 24.2 13.0 50 0.0 18 3   101.15 27   LegendNANA
15:00 23.8 13.6 53 0.0 23 9   101.13 27   LegendNANA
16:00 23.3 12.1 49 0.0 24 11   101.10 26   LegendNANA
17:00 23.5 12.5 50 0.0 25 7   101.10 26   LegendNANA
18:00 21.6 12.3 56 0.0 24 6   101.13     LegendNANA
19:00 20.6 12.1 58 0.0 24 6   101.16     LegendNANA
20:00 20.0 12.3 61 0.0 17 3   101.19     LegendNANA
21:00 19.7 12.7 64 0.0 16 4   101.21     LegendNANA
22:00 19.4 12.4 64 0.0 21 4   101.19     LegendNANA
23:00 18.8 12.6 67 0.0 21 4   101.22     LegendNANA

Notes on Data Quality.

Legend

  • E = Estimated
  • M = Missing
  • NA = Not Available*
  • [empty] = Indicates an unobserved value
Date modified: